User: anonymous   Login
Location: Tauranga
(37.6860°S, 176.1670°E)
Time: 20:26:35
(UTC+13:00)
Language:

Cosmos 540 Rocket - Orbit

View from above orbital plane
View from above orbital plane
View from above satellite
View from above satellite

Ground track
Ground track

The orbit data is extracted from the following two-line orbital elements,

1  6324U 72104B   19079.77113510  .00000024  00000-0  14950-4 0  9999
2  6324  74.0791 356.9118 0009580 325.1323  34.9205 14.43448404428147
Epoch (UTC): 20 March 2019 18:30:26
Eccentricity: 0.0009580
inclination: 74.0791°
perigee height: 740 km
apogee height: 754 km
right ascension of ascending node: 356.9118°
argument of perigee: 325.1323°
revolutions per day: 14.43448404
mean anomaly at epoch: 34.9205°
orbit number at epoch: 42814

The dashed part of the orbit path shows where the satellite is in the earth's shadow,  

DLR